Powrót do katalogu

STARLINK-32762

AktywnyŁącznośćVLEO
NORAD 62748·PAYLOAD·🇺🇸 United States

Wystrzelony Jan 21, 2025 z Cape Canaveral Space Force Station

Loading…

Następne Przeloty (najbliższe 24 godziny)

TLE

ŚwieżeSource: CelesTrak SupGP

Epoka: Sep 14, 2026, 14:57 UTC

1 62748C 25014P   26257.62340278  .00040688  00000+0  14738-2 0  2570
2 62748  43.0028 170.6531 0001496 258.4025 137.3894 15.27555490    14

Śledź STARLINK-32762 w czasie rzeczywistym z AllMySat

Download on the App Store